EW0036 Weather Reports


time (UTC)temp
C
wind
direction
speed
KPH
gust
KPH
rain 1hr
cm
rain 24hr
cm
rain mn
cm
humidity
%
barometer
mb
20260508101502 23 176 4.8 9.7 0.00 0.00 0.00 39 1012.5
20260508100501 22 211 1.6 8.0 0.00 0.00 0.00 40 1012.9
20260508095500 22 204 1.6 11.3 0.00 0.00 0.00 39 1012.9
20260508094459 22 143 4.8 11.3 0.00 0.00 0.00 38 1013.2
20260508093458 23 119 3.2 8.0 0.00 0.00 0.00 39 1013.2
20260508092457 23 132 3.2 11.3 0.00 0.00 0.00 39 1013.2
20260508091456 23 199 4.8 11.3 0.00 0.00 0.00 39 1013.2
20260508090455 23 328 3.2 11.3 0.00 0.00 0.00 41 1013.2
20260508085454 23 173 1.6 11.3 0.00 0.00 0.00 43 1013.2
20260508084449 23 111 3.2 8.0 0.00 0.00 0.00 44 1013.2
20260508083447 22 69 1.6 9.7 0.00 0.00 0.00 46 1013.2
20260508082446 22 154 3.2 11.3 0.00 0.00 0.00 45 1013.5
20260508081343 22 174 3.2 9.7 0.00 0.00 0.00 46 1013.5
20260508080341 22 211 3.2 9.7 0.00 0.00 0.00 47 1013.5
20260508075340 22 174 3.2 11.3 0.00 0.00 0.00 47 1013.5
20260508074339 21 197 3.2 11.3 0.00 0.00 0.00 49 1013.5
20260508073338 21 184 4.8 11.3 0.00 0.00 0.00 46 1013.5
20260508072337 21 177 3.2 8.0 0.00 0.00 0.00 50 1013.5
20260508071336 21 161 3.2 8.0 0.00 0.00 0.00 50 1013.5
20260508070336 21 118 3.2 4.8 0.00 0.00 0.00 53 1013.5
20260508065335 20 147 1.6 9.7 0.00 0.00 0.00 55 1013.5
20260508064303 19 173 3.2 9.7 0.00 0.00 0.00 56 1013.5
20260508063231 18 171 1.6 4.8 0.00 0.00 0.00 58 1013.5
20260508062158 18 235 3.2 8.0 0.00 0.00 0.00 61 1013.5
20260508061157 18 178 1.6 8.0 0.00 0.00 0.00 61 1013.5
20260508060156 17 135 1.6 6.4 0.00 0.00 0.00 64 1013.5
20260508055156 17 186 3.2 8.0 0.00 0.00 0.00 66 1013.5
20260508054155 16 166 3.2 6.4 0.00 0.00 0.00 66 1013.5
20260508053141 16 106 1.6 4.8 0.00 0.00 0.00 68 1013.5
20260508052140 16 179 1.6 14.5 0.00 0.00 0.00 67 1013.5
20260508051138 16 202 4.8 14.5 0.00 0.00 0.00 67 1013.5
20260508050134 16 214 1.6 9.7 0.00 0.00 0.00 68 1013.5
20260508045133 15 213 1.6 4.8 0.00 0.00 0.00 69 1013.5
20260508044132 15 221 1.6 4.8 0.00 0.00 0.00 70 1013.5
20260508043129 14 118 1.6 4.8 0.00 0.00 0.00 72 1013.5
20260508042057 13 249 1.6 4.8 0.00 0.00 0.00 73 1013.5
20260508041056 13 262 1.6 4.8 0.00 0.00 0.00 74 1013.5
20260508040042 13 232 1.6 12.9 0.00 0.00 0.00 75 1013.2
20260508035040 13 215 0.0 9.7 0.00 0.00 0.00 75 1013.2
20260508034039 13 184 3.2 4.8 0.00 0.00 0.00 75 1013.2
20260508033039 13 119 1.6 4.8 0.00 0.00 0.00 74 1013.2
20260508032038 13 233 1.6 4.8 0.00 0.00 0.00 74 1013.2
20260508012740 13 216 1.6 6.4 0.00 0.00 0.00 68 1013.2
20260508011739 14 3 1.6 6.4 0.00 0.00 0.00 68 1013.2
20260508010707 14 151 0.0 6.4 0.00 0.00 0.00 67 1013.5
20260508005706 14 165 1.6 6.4 0.00 0.00 0.00 66 1013.5
20260508004705 14 194 3.2 4.8 0.00 0.00 0.00 65 1013.5
20260508003704 15 277 1.6 3.2 0.00 0.00 0.00 65 1013.5
20260508002703 15 278 1.6 11.3 0.00 0.00 0.00 63 1013.5
20260508001702 15 212 0.0 11.3 0.00 0.00 0.00 62 1013.5
20260508000701 15 196 1.6 4.8 0.00 0.00 0.00 62 1013.5
20260507235700 15 220 3.2 4.8 0.00 0.00 0.00 60 1013.5
20260507234658 15 138 1.6 8.0 0.00 0.00 0.00 59 1013.5
20260507233657 16 154 1.6 8.0 0.00 0.00 0.00 59 1013.9
20260507232656 16 221 3.2 8.0 0.00 0.00 0.00 58 1013.9
20260507231655 16 245 3.2 8.0 0.00 0.00 0.00 57 1013.9
20260507230654 16 141 1.6 6.4 0.00 0.00 0.00 56 1013.9
20260507225653 16 201 3.2 8.0 0.00 0.00 0.00 55 1013.9
20260507224652 16 157 1.6 4.8 0.00 0.00 0.00 54 1013.9
20260507223651 17 210 1.6 8.0 0.00 0.00 0.00 54 1013.9
20260507222651 17 249 0.0 8.0 0.00 0.00 0.00 53 1013.9
20260507221649 17 144 1.6 3.2 0.00 0.00 0.00 52 1013.9
20260507220648 17 216 1.6 4.8 0.00 0.00 0.00 51 1013.9
20260507215647 17 270 0.0 4.8 0.00 0.00 0.00 50 1013.9
20260507214646 17 149 1.6 4.8 0.00 0.00 0.00 50 1013.9
20260507213645 18 148 1.6 4.8 0.00 0.00 0.00 49 1013.9
20260507212635 18 219 1.6 6.4 0.00 0.00 0.00 48 1013.9
20260507211634 18 235 1.6 9.7 0.00 0.00 0.00 47 1013.5
20260507210633 18 217 1.6 9.7 0.00 0.00 0.00 46 1013.5
20260507205633 18 163 3.2 9.7 0.00 0.00 0.00 45 1013.5
20260507203557 19 211 1.6 8.0 0.00 0.00 0.00 44 1013.2
20260507202525 19 163 1.6 8.0 0.00 0.00 0.00 43 1013.2
20260507201524 19 104 1.6 4.8 0.00 0.00 0.00 43 1013.2
20260507200452 20 88 1.6 6.4 0.00 0.00 0.00 42 1013.2
20260507195420 20 162 1.6 3.2 0.00 0.00 0.00 41 1013.2
20260507194419 20 295 1.6 3.2 0.00 0.00 0.00 41 1012.9
20260507193418 20 113 1.6 4.8 0.00 0.00 0.00 40 1012.9
20260507191310 20 172 1.6 4.8 0.00 0.00 0.00 40 1012.9
20260507190238 21 260 1.6 6.4 0.00 0.00 0.00 39 1012.5
20260507185227 21 221 3.2 8.0 0.00 0.00 0.00 38 1012.5
20260507184226 21 201 0.0 4.8 0.00 0.00 0.00 38 1012.5
20260507183225 21 256 1.6 4.8 0.00 0.00 0.00 37 1012.5
20260507182224 21 217 1.6 6.4 0.00 0.00 0.00 37 1012.5
20260507181049 22 85 1.6 8.0 0.00 0.00 0.00 37 1012.2
20260507180049 22 157 3.2 8.0 0.00 0.00 0.00 36 1012.2
20260507175048 22 225 3.2 4.8 0.00 0.00 0.00 35 1011.9
20260507174047 22 127 3.2 6.4 0.00 0.00 0.00 35 1011.9
20260507173046 22 214 3.2 4.8 0.00 0.00 0.00 34 1011.9
20260507172045 23 183 3.2 4.8 0.00 0.00 0.00 33 1011.5
20260507171044 23 110 3.2 9.7 0.00 0.00 0.00 33 1011.5
20260507170043 23 213 3.2 6.4 0.00 0.00 0.00 32 1011.5
20260507165042 24 143 1.6 6.4 0.00 0.00 0.00 31 1011.5
20260507164041 25 211 1.6 8.0 0.00 0.00 0.00 31 1011.5
20260507163040 25 212 1.6 9.7 0.00 0.00 0.00 30 1011.2
20260507162039 26 216 3.2 9.7 0.00 0.00 0.00 29 1011.2
20260507161038 27 198 1.6 6.4 0.00 0.00 0.00 28 1011.2
20260507160037 27 200 1.6 9.7 0.00 0.00 0.00 27 1011.2
20260507155036 28 146 1.6 11.3 0.00 0.00 0.00 26 1011.2
20260507154035 28 209 3.2 11.3 0.00 0.00 0.00 25 1011.2
20260507153034 28 164 3.2 9.7 0.00 0.00 0.00 25 1011.2
20260507151033 28 160 3.2 6.4 0.00 0.00 0.00 25 1011.5
20260507150032 29 176 1.6 9.7 0.00 0.00 0.00 26 1011.2
20260507145032 29 217 1.6 9.7 0.00 0.00 0.00 25 1011.2
20260507144031 30 209 1.6 6.4 0.00 0.00 0.00 25 1011.2
20260507143012 30 216 3.2 9.7 0.00 0.00 0.00 25 1011.2
20260507142011 29 137 1.6 11.3 0.00 0.00 0.00 26 1011.5
20260507141010 30 220 3.2 9.7 0.00 0.00 0.00 25 1011.5
20260507140009 30 172 3.2 14.5 0.00 0.00 0.00 25 1011.5
20260507135001 29 157 3.2 16.1 0.00 0.00 0.00 26 1011.5
20260507134000 29 211 3.2 16.1 0.00 0.00 0.00 25 1011.5
20260507132959 29 196 1.6 16.1 0.00 0.00 0.00 25 1011.5
20260507131958 29 221 3.2 11.3 0.00 0.00 0.00 26 1011.5
20260507130956 29 244 3.2 11.3 0.00 0.00 0.00 25 1011.5
20260507125955 29 161 3.2 14.5 0.00 0.00 0.00 25 1011.5
20260507124923 29 237 3.2 12.9 0.00 0.00 0.00 25 1011.9
20260507123922 29 147 4.8 12.9 0.00 0.00 0.00 25 1011.9
20260507122921 29 239 1.6 17.7 0.00 0.00 0.00 26 1011.9
20260507120834 30 208 1.6 11.3 0.00 0.00 0.00 26 1011.9
20260507115833 29 200 3.2 16.1 0.00 0.00 0.00 26 1012.2
20260507114832 30 261 4.8 12.9 0.00 0.00 0.00 26 1012.2
20260507113657 29 249 3.2 9.7 0.00 0.00 0.00 27 1012.2
20260507112656 29 201 3.2 14.5 0.00 0.00 0.00 27 1012.2
20260507111621 30 244 3.2 16.1 0.00 0.00 0.00 27 1012.5
20260507110620 30 153 3.2 11.3 0.00 0.00 0.00 27 1012.5
20260507105619 29 28 3.2 19.3 0.00 0.00 0.00 28 1012.5
20260507104616 29 104 3.2 11.3 0.00 0.00 0.00 28 1012.5
20260507103615 30 258 3.2 12.9 0.00 0.00 0.00 27 1012.5
20260507102614 29 260 1.6 9.7 0.00 0.00 0.00 29 1012.5